| time (UTC) | temp C | wind direction | speed KPH | gust KPH | rain 1hr cm | rain 24hr cm | rain mn cm | humidity % | barometer mb |
| 20260503224450 | 13 | 150 | 4.8 | 19.3 | 0.00 | 0.00 | 0.00 | 63 | 1008.2 |
| 20260503224250 | 13 | 172 | 6.4 | 19.3 | 0.00 | 0.00 | 0.00 | 63 | 1008.3 |
| 20260503224050 | 13 | 198 | 6.4 | 19.3 | 0.00 | 0.00 | 0.00 | 64 | 1008.3 |
| 20260503223849 | 13 | 224 | 3.2 | 12.9 | 0.00 | 0.00 | 0.00 | 65 | 1008.4 |
| 20260503223649 | 12 | 191 | 1.6 | 11.3 | 0.00 | 0.00 | 0.00 | 65 | 1008.3 |
| 20260503223449 | 12 | 178 | 4.8 | 14.5 | 0.00 | 0.00 | 0.00 | 65 | 1008.3 |
| 20260503223249 | 12 | 213 | 4.8 | 20.9 | 0.00 | 0.00 | 0.00 | 65 | 1008.4 |
| 20260503223048 | 12 | 177 | 3.2 | 20.9 | 0.00 | 0.00 | 0.00 | 66 | 1008.5 |
| 20260503222848 | 12 | 154 | 4.8 | 20.9 | 0.00 | 0.00 | 0.00 | 66 | 1008.5 |
| 20260503222648 | 12 | 196 | 3.2 | 20.9 | 0.00 | 0.00 | 0.00 | 66 | 1008.4 |
| 20260503222447 | 12 | 199 | 4.8 | 20.9 | 0.00 | 0.00 | 0.00 | 66 | 1008.5 |
| 20260503222247 | 12 | 224 | 4.8 | 20.9 | 0.00 | 0.00 | 0.00 | 67 | 1008.5 |
| 20260503222047 | 12 | 230 | 4.8 | 14.5 | 0.00 | 0.00 | 0.00 | 68 | 1008.5 |
| 20260503221846 | 12 | 191 | 4.8 | 14.5 | 0.00 | 0.00 | 0.00 | 68 | 1008.5 |
| 20260503221646 | 12 | 201 | 4.8 | 14.5 | 0.00 | 0.00 | 0.00 | 68 | 1008.4 |
| 20260503221446 | 12 | 219 | 6.4 | 14.5 | 0.00 | 0.00 | 0.00 | 68 | 1008.5 |
| 20260503221246 | 12 | 192 | 6.4 | 14.5 | 0.00 | 0.00 | 0.00 | 69 | 1008.4 |
| 20260503221045 | 12 | 214 | 4.8 | 12.9 | 0.00 | 0.00 | 0.00 | 71 | 1008.4 |
| 20260503220845 | 12 | 232 | 4.8 | 12.9 | 0.00 | 0.00 | 0.00 | 71 | 1008.5 |
| 20260503220645 | 12 | 225 | 6.4 | 19.3 | 0.00 | 0.00 | 0.00 | 71 | 1008.4 |
| 20260503220444 | 12 | 231 | 4.8 | 19.3 | 0.00 | 0.00 | 0.00 | 72 | 1008.4 |
| 20260503220244 | 12 | 197 | 4.8 | 19.3 | 0.00 | 0.00 | 0.00 | 73 | 1008.3 |
| 20260503220044 | 12 | 196 | 4.8 | 19.3 | 0.00 | 0.00 | 0.00 | 74 | 1008.3 |
| 20260503215843 | 11 | 203 | 6.4 | 19.3 | 0.00 | 0.00 | 0.00 | 74 | 1008.3 |
| 20260503215643 | 11 | 203 | 4.8 | 19.3 | 0.00 | 0.00 | 0.00 | 74 | 1008.4 |
| 20260503215443 | 11 | 212 | 3.2 | 11.3 | 0.00 | 0.00 | 0.00 | 74 | 1008.4 |
| 20260503215242 | 11 | 257 | 1.6 | 14.5 | 0.00 | 0.00 | 0.00 | 75 | 1008.5 |
| 20260503215042 | 11 | 231 | 1.6 | 16.1 | 0.00 | 0.00 | 0.00 | 75 | 1008.5 |
| 20260503214842 | 11 | 223 | 3.2 | 16.1 | 0.00 | 0.00 | 0.00 | 74 | 1008.5 |
| 20260503214642 | 11 | 207 | 6.4 | 16.1 | 0.00 | 0.00 | 0.00 | 73 | 1008.4 |
| 20260503214441 | 11 | 217 | 6.4 | 16.1 | 0.00 | 0.00 | 0.00 | 73 | 1008.5 |
| 20260503214241 | 11 | 152 | 4.8 | 16.1 | 0.00 | 0.00 | 0.00 | 72 | 1008.6 |
| 20260503214041 | 12 | 74 | 1.6 | 16.1 | 0.00 | 0.00 | 0.00 | 73 | 1008.7 |
| 20260503213840 | 12 | 351 | 3.2 | 16.1 | 0.00 | 0.00 | 0.00 | 72 | 1008.7 |
| 20260503213640 | 12 | 337 | 4.8 | 16.1 | 0.00 | 0.00 | 0.00 | 72 | 1008.7 |
| 20260503213440 | 12 | 264 | 3.2 | 16.1 | 0.00 | 0.00 | 0.00 | 71 | 1008.7 |
| 20260503213240 | 12 | 218 | 3.2 | 16.1 | 0.00 | 0.00 | 0.00 | 72 | 1008.7 |
| 20260503213039 | 12 | 118 | 1.6 | 19.3 | 0.00 | 0.00 | 0.00 | 72 | 1008.8 |
| 20260503212839 | 12 | 128 | 3.2 | 19.3 | 0.00 | 0.00 | 0.00 | 72 | 1008.7 |
| 20260503212639 | 12 | 69 | 4.8 | 19.3 | 0.00 | 0.00 | 0.00 | 71 | 1008.7 |
| 20260503212438 | 12 | 135 | 6.4 | 19.3 | 0.00 | 0.00 | 0.00 | 72 | 1008.6 |
| 20260503212238 | 12 | 159 | 4.8 | 19.3 | 0.00 | 0.00 | 0.00 | 70 | 1008.6 |
| 20260503212038 | 12 | 148 | 3.2 | 12.9 | 0.00 | 0.00 | 0.00 | 71 | 1008.7 |
| 20260503211837 | 12 | 305 | 6.4 | 12.9 | 0.00 | 0.00 | 0.00 | 71 | 1008.7 |
| 20260503211637 | 12 | 130 | 6.4 | 12.9 | 0.00 | 0.00 | 0.00 | 71 | 1008.8 |
| 20260503211437 | 12 | 102 | 3.2 | 12.9 | 0.00 | 0.00 | 0.00 | 73 | 1008.7 |
| 20260503211236 | 12 | 215 | 1.6 | 19.3 | 0.00 | 0.00 | 0.00 | 72 | 1008.7 |
| 20260503211036 | 12 | 245 | 1.6 | 19.3 | 0.00 | 0.00 | 0.00 | 72 | 1008.7 |
| 20260503210836 | 12 | 244 | 4.8 | 19.3 | 0.00 | 0.00 | 0.00 | 72 | 1008.6 |
| 20260503210636 | 12 | 219 | 4.8 | 19.3 | 0.00 | 0.00 | 0.00 | 72 | 1008.6 |
| 20260503210435 | 12 | 216 | 6.4 | 19.3 | 0.00 | 0.00 | 0.00 | 72 | 1008.5 |
| 20260503210235 | 12 | 206 | 6.4 | 16.1 | 0.00 | 0.00 | 0.00 | 71 | 1008.5 |
| 20260503210035 | 12 | 222 | 4.8 | 14.5 | 0.00 | 0.00 | 0.00 | 72 | 1008.6 |
| 20260503205834 | 12 | 220 | 4.8 | 14.5 | 0.00 | 0.00 | 0.00 | 70 | 1008.5 |
| 20260503205634 | 12 | 222 | 3.2 | 14.5 | 0.00 | 0.00 | 0.00 | 70 | 1008.5 |
| 20260503205434 | 12 | 239 | 4.8 | 20.9 | 0.00 | 0.00 | 0.00 | 70 | 1008.6 |
| 20260503205234 | 12 | 210 | 4.8 | 22.5 | 0.00 | 0.00 | 0.00 | 70 | 1008.5 |
| 20260503205033 | 12 | 187 | 6.4 | 22.5 | 0.00 | 0.00 | 0.00 | 69 | 1008.5 |
| 20260503204833 | 12 | 192 | 6.4 | 22.5 | 0.00 | 0.00 | 0.00 | 69 | 1008.5 |
| 20260503204633 | 12 | 199 | 8.0 | 30.6 | 0.00 | 0.00 | 0.00 | 69 | 1008.6 |
| 20260503204432 | 13 | 198 | 8.0 | 30.6 | 0.00 | 0.00 | 0.00 | 67 | 1008.6 |
| 20260503204232 | 13 | 240 | 9.7 | 30.6 | 0.00 | 0.00 | 0.00 | 67 | 1008.5 |
| 20260503204032 | 13 | 217 | 9.7 | 30.6 | 0.00 | 0.00 | 0.00 | 63 | 1008.6 |
| 20260503203831 | 14 | 141 | 11.3 | 30.6 | 0.00 | 0.00 | 0.00 | 60 | 1008.5 |
| 20260503203631 | 14 | 170 | 6.4 | 25.7 | 0.00 | 0.00 | 0.00 | 59 | 1008.5 |
| 20260503203431 | 14 | 165 | 4.8 | 40.2 | 0.00 | 0.00 | 0.00 | 57 | 1008.4 |
| 20260503203230 | 14 | 123 | 3.2 | 40.2 | 0.00 | 0.00 | 0.00 | 57 | 1008.3 |
| 20260503203030 | 14 | 273 | 6.4 | 40.2 | 0.00 | 0.00 | 0.00 | 56 | 1008.3 |
| 20260503202830 | 14 | 200 | 11.3 | 40.2 | 0.00 | 0.00 | 0.00 | 56 | 1008.2 |
| 20260503202630 | 14 | 278 | 11.3 | 40.2 | 0.00 | 0.00 | 0.00 | 55 | 1008.2 |
| 20260503202429 | 15 | 181 | 12.9 | 32.2 | 0.00 | 0.00 | 0.00 | 55 | 1008.2 |
| 20260503202229 | 15 | 148 | 12.9 | 32.2 | 0.00 | 0.00 | 0.00 | 54 | 1008.2 |
| 20260503202029 | 15 | 174 | 12.9 | 30.6 | 0.00 | 0.00 | 0.00 | 54 | 1008.2 |
| 20260503201828 | 15 | 238 | 11.3 | 30.6 | 0.00 | 0.00 | 0.00 | 55 | 1008.1 |
| 20260503201628 | 15 | 225 | 8.0 | 32.2 | 0.00 | 0.00 | 0.00 | 55 | 1008.1 |
| 20260503201428 | 15 | 220 | 9.7 | 32.2 | 0.00 | 0.00 | 0.00 | 55 | 1008.2 |
| 20260503201227 | 15 | 275 | 11.3 | 32.2 | 0.00 | 0.00 | 0.00 | 55 | 1008.2 |
| 20260503201027 | 15 | 163 | 9.7 | 32.2 | 0.00 | 0.00 | 0.00 | 54 | 1008.1 |
| 20260503200827 | 15 | 224 | 9.7 | 25.7 | 0.00 | 0.00 | 0.00 | 55 | 1008.1 |
| 20260503200627 | 15 | 233 | 9.7 | 30.6 | 0.00 | 0.00 | 0.00 | 56 | 1008.1 |
| 20260503200426 | 15 | 218 | 9.7 | 32.2 | 0.00 | 0.00 | 0.00 | 56 | 1008.1 |
| 20260503200226 | 15 | 224 | 11.3 | 32.2 | 0.00 | 0.00 | 0.00 | 56 | 1008.1 |
| 20260503200026 | 14 | 240 | 11.3 | 32.2 | 0.00 | 0.00 | 0.00 | 57 | 1008.2 |
| 20260503195825 | 14 | 213 | 11.3 | 32.2 | 0.00 | 0.00 | 0.00 | 57 | 1008.2 |
| 20260503195625 | 14 | 193 | 8.0 | 32.2 | 0.00 | 0.00 | 0.00 | 58 | 1008.4 |
| 20260503195425 | 14 | 207 | 9.7 | 27.4 | 0.00 | 0.00 | 0.00 | 58 | 1008.5 |
| 20260503195224 | 13 | 229 | 9.7 | 27.4 | 0.00 | 0.00 | 0.00 | 58 | 1008.3 |
| 20260503195024 | 13 | 193 | 9.7 | 20.9 | 0.00 | 0.00 | 0.00 | 59 | 1008.4 |
| 20260503194824 | 13 | 182 | 9.7 | 30.6 | 0.00 | 0.00 | 0.00 | 60 | 1008.4 |
| 20260503194624 | 13 | 206 | 6.4 | 32.2 | 0.00 | 0.00 | 0.00 | 60 | 1008.4 |
| 20260503194423 | 13 | 225 | 6.4 | 32.2 | 0.00 | 0.00 | 0.00 | 60 | 1008.3 |
| 20260503194223 | 13 | 225 | 8.0 | 32.2 | 0.00 | 0.00 | 0.00 | 60 | 1008.3 |
| 20260503194023 | 13 | 216 | 8.0 | 32.2 | 0.00 | 0.00 | 0.00 | 60 | 1008.4 |
| 20260503193822 | 14 | 203 | 9.7 | 32.2 | 0.00 | 0.00 | 0.00 | 60 | 1008.4 |
| 20260503193622 | 14 | 233 | 6.4 | 24.1 | 0.00 | 0.00 | 0.00 | 58 | 1008.5 |
| 20260503193422 | 14 | 220 | 9.7 | 24.1 | 0.00 | 0.00 | 0.00 | 58 | 1008.5 |
| 20260503193221 | 14 | 212 | 6.4 | 25.7 | 0.00 | 0.00 | 0.00 | 58 | 1008.4 |
| 20260503193021 | 14 | 238 | 8.0 | 27.4 | 0.00 | 0.00 | 0.00 | 58 | 1008.5 |
| 20260503192821 | 14 | 218 | 11.3 | 27.4 | 0.00 | 0.00 | 0.00 | 58 | 1008.6 |
| 20260503192621 | 15 | 218 | 14.5 | 27.4 | 0.00 | 0.00 | 0.00 | 57 | 1008.6 |
| 20260503192420 | 15 | 211 | 11.3 | 27.4 | 0.00 | 0.00 | 0.00 | 56 | 1008.6 |
| 20260503192220 | 15 | 209 | 9.7 | 27.4 | 0.00 | 0.00 | 0.00 | 56 | 1008.5 |
| 20260503192020 | 15 | 229 | 12.9 | 27.4 | 0.00 | 0.00 | 0.00 | 54 | 1008.5 |
| 20260503191819 | 15 | 228 | 9.7 | 27.4 | 0.00 | 0.00 | 0.00 | 53 | 1008.5 |
| 20260503191619 | 15 | 212 | 11.3 | 27.4 | 0.00 | 0.00 | 0.00 | 53 | 1008.5 |
| 20260503191419 | 16 | 230 | 6.4 | 27.4 | 0.00 | 0.00 | 0.00 | 52 | 1008.6 |
| 20260503191218 | 16 | 218 | 8.0 | 27.4 | 0.00 | 0.00 | 0.00 | 51 | 1008.5 |
| 20260503191018 | 16 | 156 | 9.7 | 27.4 | 0.00 | 0.00 | 0.00 | 51 | 1008.5 |
| 20260503190818 | 15 | 204 | 9.7 | 27.4 | 0.00 | 0.00 | 0.00 | 50 | 1008.6 |
| 20260503190618 | 15 | 220 | 11.3 | 27.4 | 0.00 | 0.00 | 0.00 | 50 | 1008.6 |
| 20260503190417 | 15 | 219 | 9.7 | 24.1 | 0.00 | 0.00 | 0.00 | 51 | 1008.7 |
| 20260503190217 | 15 | 220 | 8.0 | 24.1 | 0.00 | 0.00 | 0.00 | 51 | 1008.7 |
| 20260503190017 | 15 | 209 | 9.7 | 24.1 | 0.00 | 0.00 | 0.00 | 52 | 1008.6 |
| 20260503185816 | 15 | 236 | 9.7 | 24.1 | 0.00 | 0.00 | 0.00 | 52 | 1008.7 |
| 20260503185616 | 15 | 237 | 8.0 | 24.1 | 0.00 | 0.00 | 0.00 | 52 | 1008.7 |
| 20260503185416 | 15 | 193 | 8.0 | 25.7 | 0.00 | 0.00 | 0.00 | 53 | 1008.8 |
| 20260503185215 | 15 | 179 | 6.4 | 25.7 | 0.00 | 0.00 | 0.00 | 53 | 1008.8 |
| 20260503185015 | 15 | 227 | 8.0 | 25.7 | 0.00 | 0.00 | 0.00 | 53 | 1008.9 |
| 20260503184815 | 15 | 245 | 9.7 | 27.4 | 0.00 | 0.00 | 0.00 | 53 | 1008.9 |
| 20260503184615 | 15 | 220 | 11.3 | 27.4 | 0.00 | 0.00 | 0.00 | 52 | 1008.9 |
| 20260503184414 | 15 | 236 | 9.7 | 27.4 | 0.00 | 0.00 | 0.00 | 52 | 1009.0 |
| 20260503184214 | 15 | 220 | 11.3 | 27.4 | 0.00 | 0.00 | 0.00 | 52 | 1009.0 |
| 20260503184014 | 15 | 193 | 11.3 | 27.4 | 0.00 | 0.00 | 0.00 | 53 | 1009.2 |
| 20260503183813 | 15 | 189 | 9.7 | 25.7 | 0.00 | 0.00 | 0.00 | 54 | 1009.1 |
| 20260503183613 | 15 | 206 | 12.9 | 25.7 | 0.00 | 0.00 | 0.00 | 54 | 1009.1 |
| 20260503183413 | 15 | 198 | 12.9 | 27.4 | 0.00 | 0.00 | 0.00 | 53 | 1009.1 |
| 20260503183212 | 16 | 209 | 9.7 | 27.4 | 0.00 | 0.00 | 0.00 | 53 | 1009.1 |
| 20260503183012 | 16 | 204 | 11.3 | 27.4 | 0.00 | 0.00 | 0.00 | 53 | 1009.1 |
| 20260503182812 | 16 | 218 | 11.3 | 27.4 | 0.00 | 0.00 | 0.00 | 52 | 1009.3 |
| 20260503182612 | 15 | 205 | 8.0 | 29.0 | 0.00 | 0.00 | 0.00 | 55 | 1009.1 |
| 20260503182411 | 15 | 177 | 8.0 | 35.4 | 0.00 | 0.00 | 0.00 | 55 | 1009.1 |
| 20260503182211 | 15 | 198 | 9.7 | 35.4 | 0.00 | 0.00 | 0.00 | 55 | 1009.2 |
| 20260503182011 | 15 | 203 | 11.3 | 35.4 | 0.00 | 0.00 | 0.00 | 56 | 1009.3 |
| 20260503181810 | 15 | 217 | 11.3 | 35.4 | 0.00 | 0.00 | 0.00 | 55 | 1009.4 |
| 20260503181610 | 15 | 208 | 11.3 | 35.4 | 0.00 | 0.00 | 0.00 | 54 | 1009.6 |
| 20260503181410 | 15 | 238 | 8.0 | 32.2 | 0.00 | 0.00 | 0.00 | 55 | 1009.7 |
| 20260503181209 | 15 | 212 | 9.7 | 32.2 | 0.00 | 0.00 | 0.00 | 54 | 1009.6 |
| 20260503181009 | 15 | 209 | 9.7 | 32.2 | 0.00 | 0.00 | 0.00 | 54 | 1009.7 |
| 20260503180809 | 15 | 197 | 12.9 | 32.2 | 0.00 | 0.00 | 0.00 | 53 | 1009.7 |
| 20260503180608 | 15 | 220 | 12.9 | 32.2 | 0.00 | 0.00 | 0.00 | 52 | 1009.7 |
| 20260503180408 | 15 | 211 | 12.9 | 24.1 | 0.00 | 0.00 | 0.00 | 52 | 1009.7 |
| 20260503180208 | 16 | 186 | 9.7 | 38.6 | 0.00 | 0.00 | 0.00 | 53 | 1009.8 |
| 20260503180008 | 16 | 189 | 11.3 | 38.6 | 0.00 | 0.00 | 0.00 | 52 | 1009.7 |
| 20260503175807 | 15 | 214 | 11.3 | 38.6 | 0.00 | 0.00 | 0.00 | 54 | 1009.6 |
| 20260503175607 | 15 | 232 | 12.9 | 38.6 | 0.00 | 0.00 | 0.00 | 53 | 1009.7 |
| 20260503175407 | 15 | 211 | 9.7 | 38.6 | 0.00 | 0.00 | 0.00 | 54 | 1009.6 |
| 20260503175206 | 15 | 220 | 9.7 | 27.4 | 0.00 | 0.00 | 0.00 | 53 | 1009.7 |
| 20260503175006 | 15 | 216 | 8.0 | 27.4 | 0.00 | 0.00 | 0.00 | 53 | 1009.7 |
| 20260503174806 | 15 | 208 | 11.3 | 33.8 | 0.00 | 0.00 | 0.00 | 53 | 1009.8 |
| 20260503174605 | 15 | 206 | 12.9 | 38.6 | 0.00 | 0.00 | 0.00 | 53 | 1009.8 |
| 20260503174405 | 15 | 200 | 12.9 | 38.6 | 0.00 | 0.00 | 0.00 | 53 | 1009.9 |
| 20260503174205 | 15 | 222 | 11.3 | 38.6 | 0.00 | 0.00 | 0.00 | 53 | 1009.9 |
| 20260503174005 | 15 | 227 | 12.9 | 38.6 | 0.00 | 0.00 | 0.00 | 53 | 1010.0 |
| 20260503173804 | 15 | 215 | 16.1 | 38.6 | 0.00 | 0.00 | 0.00 | 53 | 1009.9 |
| 20260503173604 | 15 | 211 | 11.3 | 25.7 | 0.00 | 0.00 | 0.00 | 52 | 1009.9 |
| 20260503173404 | 15 | 218 | 11.3 | 25.7 | 0.00 | 0.00 | 0.00 | 52 | 1010.0 |
| 20260503173203 | 15 | 263 | 11.3 | 25.7 | 0.00 | 0.00 | 0.00 | 51 | 1010.0 |
| 20260503173003 | 15 | 237 | 12.9 | 25.7 | 0.00 | 0.00 | 0.00 | 51 | 1010.0 |
| 20260503172803 | 15 | 220 | 12.9 | 25.7 | 0.00 | 0.00 | 0.00 | 50 | 1010.1 |
| 20260503172603 | 15 | 211 | 11.3 | 25.7 | 0.00 | 0.00 | 0.00 | 49 | 1010.1 |
| 20260503172402 | 15 | 174 | 12.9 | 27.4 | 0.00 | 0.00 | 0.00 | 48 | 1010.0 |
| 20260503172202 | 15 | 195 | 9.7 | 27.4 | 0.00 | 0.00 | 0.00 | 48 | 1010.0 |
| 20260503172002 | 15 | 192 | 9.7 | 27.4 | 0.00 | 0.00 | 0.00 | 49 | 1009.9 |
| 20260503171801 | 15 | 192 | 11.3 | 27.4 | 0.00 | 0.00 | 0.00 | 49 | 1010.1 |
| 20260503171601 | 15 | 227 | 11.3 | 25.7 | 0.00 | 0.00 | 0.00 | 50 | 1010.0 |
| 20260503171401 | 15 | 236 | 9.7 | 25.7 | 0.00 | 0.00 | 0.00 | 49 | 1010.1 |
| 20260503171200 | 15 | 246 | 9.7 | 25.7 | 0.00 | 0.00 | 0.00 | 49 | 1010.1 |
| 20260503171000 | 15 | 238 | 11.3 | 25.7 | 0.00 | 0.00 | 0.00 | 49 | 1010.1 |
| 20260503170800 | 15 | 205 | 11.3 | 25.7 | 0.00 | 0.00 | 0.00 | 49 | 1010.1 |
| 20260503170559 | 15 | 185 | 9.7 | 25.7 | 0.00 | 0.00 | 0.00 | 49 | 1010.0 |
| 20260503170359 | 15 | 186 | 11.3 | 25.7 | 0.00 | 0.00 | 0.00 | 50 | 1010.2 |
| 20260503170159 | 15 | 207 | 12.9 | 25.7 | 0.00 | 0.00 | 0.00 | 49 | 1010.3 |
| 20260503160150 | 12 | 208 | 9.7 | 22.5 | 0.00 | 0.00 | 0.00 | 46 | 1011.1 |
| 20260503150942 | 11 | 189 | 9.7 | 24.1 | 0.00 | 0.00 | 0.00 | 47 | 1012.0 |
| 20260503150742 | 11 | 222 | 8.0 | 24.1 | 0.00 | 0.00 | 0.00 | 47 | 1012.0 |
| 20260503150541 | 11 | 230 | 8.0 | 19.3 | 0.00 | 0.00 | 0.00 | 49 | 1012.0 |
| 20260503150341 | 11 | 219 | 6.4 | 19.3 | 0.00 | 0.00 | 0.00 | 50 | 1012.0 |
| 20260503150141 | 11 | 215 | 9.7 | 19.3 | 0.00 | 0.00 | 0.00 | 48 | 1012.1 |
| 20260503140132 | 7 | 210 | 1.6 | 12.9 | 0.00 | 0.00 | 0.00 | 64 | 1012.9 |
| 20260503131410 | 7 | 98 | 1.6 | 9.7 | 0.00 | 0.00 | 0.00 | 68 | 1013.1 |
| 20260503131209 | 7 | 91 | 3.2 | 8.0 | 0.00 | 0.00 | 0.00 | 68 | 1013.0 |
| 20260503131009 | 7 | 231 | 3.2 | 9.7 | 0.00 | 0.00 | 0.00 | 68 | 1013.0 |
| 20260503130809 | 7 | 172 | 1.6 | 19.3 | 0.00 | 0.00 | 0.00 | 68 | 1013.0 |
| 20260503130608 | 7 | 213 | 3.2 | 19.3 | 0.00 | 0.00 | 0.00 | 68 | 1012.9 |
| 20260503130408 | 7 | 225 | 3.2 | 19.3 | 0.00 | 0.00 | 0.00 | 68 | 1013.0 |
| 20260503130208 | 7 | 158 | 3.2 | 19.3 | 0.00 | 0.00 | 0.00 | 68 | 1013.0 |
| 20260503120159 | 3 | 216 | 3.2 | 17.7 | 0.00 | 0.00 | 0.00 | 79 | 1013.0 |
| 20260503110751 | 1 | 193 | 4.8 | 14.5 | 0.00 | 0.00 | 0.00 | 86 | 1012.8 |
| 20260503110550 | 1 | 196 | 3.2 | 14.5 | 0.00 | 0.00 | 0.00 | 87 | 1012.7 |
| 20260503110350 | 1 | 199 | 3.2 | 14.5 | 0.00 | 0.00 | 0.00 | 87 | 1012.7 |
| 20260503110150 | 1 | 169 | 3.2 | 14.5 | 0.00 | 0.00 | 0.00 | 87 | 1012.7 |
| 20260503100141 | 1 | 218 | 1.6 | 9.7 | 0.00 | 0.00 | 0.00 | 84 | 1012.7 |
| 20260503090332 | 1 | 194 | 3.2 | 9.7 | 0.00 | 0.00 | 0.00 | 80 | 1013.2 |
| 20260503090132 | 1 | 153 | 1.6 | 9.7 | 0.00 | 0.00 | 0.00 | 79 | 1013.2 |
| 20260503081525 | 1 | 210 | 3.2 | 9.7 | 0.00 | 0.00 | 0.00 | 74 | 1013.4 |
| 20260503081325 | 1 | 205 | 3.2 | 9.7 | 0.00 | 0.00 | 0.00 | 74 | 1013.4 |
| 20260503081124 | 1 | 212 | 1.6 | 9.7 | 0.00 | 0.00 | 0.00 | 75 | 1013.4 |
| 20260503080924 | 1 | 223 | 1.6 | 8.0 | 0.00 | 0.00 | 0.00 | 75 | 1013.4 |
| 20260503080724 | 1 | 199 | 3.2 | 8.0 | 0.00 | 0.00 | 0.00 | 75 | 1013.4 |
| 20260503080523 | 1 | 193 | 3.2 | 8.0 | 0.00 | 0.00 | 0.00 | 75 | 1013.4 |
| 20260503080323 | 1 | 203 | 1.6 | 8.0 | 0.00 | 0.00 | 0.00 | 75 | 1013.4 |
| 20260503080123 | 1 | 191 | 1.6 | 4.8 | 0.00 | 0.00 | 0.00 | 75 | 1013.4 |
| 20260503072918 | 1 | 199 | 1.6 | 9.7 | 0.00 | 0.00 | 0.00 | 73 | 1013.6 |
| 20260503072718 | 1 | 184 | 1.6 | 9.7 | 0.00 | 0.00 | 0.00 | 72 | 1013.6 |
| 20260503072517 | 1 | 201 | 1.6 | 9.7 | 0.00 | 0.00 | 0.00 | 72 | 1013.6 |
| 20260503072317 | 1 | 189 | 3.2 | 9.7 | 0.00 | 0.00 | 0.00 | 73 | 1013.6 |
| 20260503072117 | 1 | 233 | 1.6 | 9.7 | 0.00 | 0.00 | 0.00 | 73 | 1013.6 |
| 20260503071916 | 1 | 207 | 1.6 | 8.0 | 0.00 | 0.00 | 0.00 | 73 | 1013.6 |
| 20260503071717 | 1 | 258 | 1.6 | 4.8 | 0.00 | 0.00 | 0.00 | 73 | 1013.6 |
| 20260503071516 | 1 | 256 | 1.6 | 4.8 | 0.00 | 0.00 | 0.00 | 72 | 1013.5 |
| 20260503071316 | 1 | 234 | 1.6 | 4.8 | 0.00 | 0.00 | 0.00 | 72 | 1013.6 |
| 20260503071115 | 1 | 264 | 1.6 | 11.3 | 0.00 | 0.00 | 0.00 | 72 | 1013.6 |
| 20260503070915 | 1 | 298 | 0.0 | 11.3 | 0.00 | 0.00 | 0.00 | 72 | 1013.6 |
| 20260503070715 | 1 | 291 | 1.6 | 11.3 | 0.00 | 0.00 | 0.00 | 71 | 1013.6 |
| 20260503070514 | 1 | 213 | 1.6 | 11.3 | 0.00 | 0.00 | 0.00 | 71 | 1013.7 |
| 20260503070314 | 1 | 218 | 1.6 | 11.3 | 0.00 | 0.00 | 0.00 | 71 | 1013.7 |
| 20260503070114 | 1 | 110 | 1.6 | 6.4 | 0.00 | 0.00 | 0.00 | 70 | 1013.7 |
| 20260503060305 | 1 | 159 | 0.0 | 3.2 | 0.00 | 0.00 | 0.00 | 67 | 1014.0 |
| 20260503060105 | 1 | 144 | 0.0 | 3.2 | 0.00 | 0.00 | 0.00 | 67 | 1014.0 |
| 20260503055103 | 1 | 347 | 1.6 | 6.4 | 0.00 | 0.00 | 0.00 | 68 | 1014.1 |
| 20260503054903 | 1 | 141 | 1.6 | 4.8 | 0.00 | 0.00 | 0.00 | 68 | 1014.1 |
| 20260503054703 | 1 | 236 | 0.0 | 4.8 | 0.00 | 0.00 | 0.00 | 69 | 1014.1 |
| 20260503054502 | 1 | 237 | 0.0 | 3.2 | 0.00 | 0.00 | 0.00 | 69 | 1014.1 |
| 20260503054302 | 1 | 244 | 0.0 | 4.8 | 0.00 | 0.00 | 0.00 | 69 | 1014.2 |
| 20260503054102 | 1 | 215 | 0.0 | 4.8 | 0.00 | 0.00 | 0.00 | 69 | 1014.2 |
| 20260503053901 | 1 | 109 | 1.6 | 4.8 | 0.00 | 0.00 | 0.00 | 69 | 1014.2 |
| 20260503053701 | 1 | 120 | 1.6 | 4.8 | 0.00 | 0.00 | 0.00 | 69 | 1014.2 |
| 20260503053501 | 1 | 145 | 0.0 | 4.8 | 0.00 | 0.00 | 0.00 | 69 | 1014.2 |
| 20260503053300 | 1 | 108 | 1.6 | 6.4 | 0.00 | 0.00 | 0.00 | 69 | 1014.2 |
| 20260503053100 | 1 | 17 | 1.6 | 6.4 | 0.00 | 0.00 | 0.00 | 69 | 1014.2 |
| 20260503052900 | 1 | 262 | 1.6 | 6.4 | 0.00 | 0.00 | 0.00 | 70 | 1014.2 |
| 20260503052700 | 1 | 246 | 1.6 | 6.4 | 0.00 | 0.00 | 0.00 | 70 | 1014.3 |
| 20260503052459 | 1 | 132 | 1.6 | 6.4 | 0.00 | 0.00 | 0.00 | 70 | 1014.3 |
| 20260503052259 | 1 | 144 | 1.6 | 6.4 | 0.00 | 0.00 | 0.00 | 70 | 1014.3 |
| 20260503052059 | 1 | 183 | 0.0 | 6.4 | 0.00 | 0.00 | 0.00 | 70 | 1014.4 |
| 20260503051858 | 1 | 156 | 1.6 | 6.4 | 0.00 | 0.00 | 0.00 | 70 | 1014.3 |
| 20260503051658 | 1 | 227 | 1.6 | 6.4 | 0.00 | 0.00 | 0.00 | 71 | 1014.3 |
| 20260503051458 | 1 | 242 | 0.0 | 6.4 | 0.00 | 0.00 | 0.00 | 71 | 1014.4 |
| 20260503051258 | 1 | 263 | 0.0 | 6.4 | 0.00 | 0.00 | 0.00 | 71 | 1014.4 |
| 20260503051057 | 1 | 263 | 0.0 | 3.2 | 0.00 | 0.00 | 0.00 | 71 | 1014.4 |
| 20260503050857 | 1 | 263 | 0.0 | 3.2 | 0.00 | 0.00 | 0.00 | 71 | 1014.4 |
| 20260503050657 | 1 | 263 | 0.0 | 3.2 | 0.00 | 0.00 | 0.00 | 71 | 1014.4 |
| 20260503050456 | 1 | 263 | 0.0 | 3.2 | 0.00 | 0.00 | 0.00 | 71 | 1014.4 |
| 20260503050256 | 1 | 263 | 0.0 | 3.2 | 0.00 | 0.00 | 0.00 | 71 | 1014.4 |
| 20260503050056 | 1 | 263 | 0.0 | 3.2 | 0.00 | 0.00 | 0.00 | 71 | 1014.4 |
| 20260503045855 | 1 | 263 | 0.0 | 3.2 | 0.00 | 0.00 | 0.00 | 71 | 1014.4 |
| 20260503045655 | 1 | 263 | 0.0 | 3.2 | 0.00 | 0.00 | 0.00 | 72 | 1014.4 |
| 20260503045455 | 1 | 263 | 0.0 | 3.2 | 0.00 | 0.00 | 0.00 | 72 | 1014.3 |
| 20260503045255 | 1 | 263 | 0.0 | 3.2 | 0.00 | 0.00 | 0.00 | 72 | 1014.3 |
| 20260503045054 | 1 | 263 | 0.0 | 3.2 | 0.00 | 0.00 | 0.00 | 72 | 1014.3 |
| 20260503044854 | 1 | 263 | 0.0 | 3.2 | 0.00 | 0.00 | 0.00 | 72 | 1014.3 |
| 20260503044654 | 1 | 263 | 0.0 | 1.6 | 0.00 | 0.00 | 0.00 | 73 | 1014.3 |
| 20260503044453 | 1 | 263 | 0.0 | 1.6 | 0.00 | 0.00 | 0.00 | 73 | 1014.3 |
| 20260503044253 | 1 | 263 | 0.0 | 1.6 | 0.00 | 0.00 | 0.00 | 73 | 1014.3 |
| 20260503044053 | 1 | 263 | 0.0 | 1.6 | 0.00 | 0.00 | 0.00 | 73 | 1014.4 |
| 20260503043852 | 1 | 263 | 0.0 | 1.6 | 0.00 | 0.00 | 0.00 | 73 | 1014.4 |
| 20260503043652 | 1 | 0 | 0.0 | 1.6 | 0.00 | 0.00 | 0.00 | 73 | 1014.4 |
| 20260503043452 | 1 | 263 | 0.0 | 1.6 | 0.00 | 0.00 | 0.00 | 73 | 1014.4 |
| 20260503043252 | 1 | 0 | 0.0 | 1.6 | 0.00 | 0.00 | 0.00 | 73 | 1014.4 |
| 20260503043051 | 1 | 0 | 0.0 | 1.6 | 0.00 | 0.00 | 0.00 | 73 | 1014.4 |
| 20260503042851 | 1 | 263 | 0.0 | 1.6 | 0.00 | 0.00 | 0.00 | 73 | 1014.4 |
| 20260503042651 | 1 | 263 | 0.0 | 1.6 | 0.00 | 0.00 | 0.00 | 72 | 1014.4 |
| 20260503042450 | 1 | 263 | 0.0 | 1.6 | 0.00 | 0.00 | 0.00 | 72 | 1014.3 |
| 20260503042250 | 1 | 263 | 0.0 | 1.6 | 0.00 | 0.00 | 0.00 | 72 | 1014.5 |
| 20260503042050 | 1 | 263 | 0.0 | 1.6 | 0.00 | 0.00 | 0.00 | 72 | 1014.5 |
| 20260503041849 | 1 | 263 | 0.0 | 1.6 | 0.00 | 0.00 | 0.00 | 72 | 1014.5 |
| 20260503041649 | 1 | 263 | 0.0 | 1.6 | 0.00 | 0.00 | 0.00 | 72 | 1014.5 |
| 20260503041449 | 1 | 0 | 0.0 | 3.2 | 0.00 | 0.00 | 0.00 | 72 | 1014.5 |
| 20260503041249 | 1 | 263 | 0.0 | 3.2 | 0.00 | 0.00 | 0.00 | 73 | 1014.6 |
| 20260503041048 | 1 | 263 | 0.0 | 3.2 | 0.00 | 0.00 | 0.00 | 73 | 1014.6 |
| 20260503040848 | 2 | 263 | 0.0 | 3.2 | 0.00 | 0.00 | 0.00 | 73 | 1014.6 |
| 20260503040648 | 2 | 263 | 0.0 | 3.2 | 0.00 | 0.00 | 0.00 | 73 | 1014.6 |
| 20260503040447 | 2 | 263 | 0.0 | 3.2 | 0.00 | 0.00 | 0.00 | 73 | 1014.6 |
| 20260503040247 | 2 | 263 | 0.0 | 3.2 | 0.00 | 0.00 | 0.00 | 73 | 1014.6 |
| 20260503040047 | 2 | 263 | 0.0 | 3.2 | 0.00 | 0.00 | 0.00 | 73 | 1014.6 |
| 20260503035846 | 2 | 263 | 0.0 | 3.2 | 0.00 | 0.00 | 0.00 | 73 | 1014.6 |
| 20260503035646 | 2 | 263 | 0.0 | 3.2 | 0.00 | 0.00 | 0.00 | 73 | 1014.6 |
| 20260503035446 | 2 | 263 | 0.0 | 3.2 | 0.00 | 0.00 | 0.00 | 73 | 1014.6 |
| 20260503035246 | 2 | 263 | 0.0 | 3.2 | 0.00 | 0.00 | 0.00 | 73 | 1014.6 |
| 20260503035045 | 2 | 263 | 0.0 | 3.2 | 0.00 | 0.00 | 0.00 | 73 | 1014.6 |
| 20260503034845 | 2 | 263 | 0.0 | 3.2 | 0.00 | 0.00 | 0.00 | 73 | 1014.6 |
| 20260503034645 | 2 | 263 | 0.0 | 4.8 | 0.00 | 0.00 | 0.00 | 73 | 1014.6 |
| 20260503034444 | 2 | 263 | 0.0 | 4.8 | 0.00 | 0.00 | 0.00 | 73 | 1014.6 |
| 20260503034244 | 2 | 255 | 0.0 | 4.8 | 0.00 | 0.00 | 0.00 | 73 | 1014.6 |
| 20260503034044 | 2 | 250 | 0.0 | 4.8 | 0.00 | 0.00 | 0.00 | 73 | 1014.6 |
| 20260503033843 | 2 | 235 | 1.6 | 4.8 | 0.00 | 0.00 | 0.00 | 73 | 1014.6 |
| 20260503033643 | 2 | 249 | 1.6 | 4.8 | 0.00 | 0.00 | 0.00 | 73 | 1014.6 |
| 20260503033443 | 2 | 249 | 0.0 | 3.2 | 0.00 | 0.00 | 0.00 | 73 | 1014.6 |
| 20260503033243 | 2 | 249 | 0.0 | 3.2 | 0.00 | 0.00 | 0.00 | 73 | 1014.6 |
| 20260503033042 | 2 | 249 | 0.0 | 3.2 | 0.00 | 0.00 | 0.00 | 73 | 1014.7 |
| 20260503032842 | 2 | 249 | 0.0 | 4.8 | 0.00 | 0.00 | 0.00 | 73 | 1014.7 |
| 20260503032642 | 2 | 249 | 0.0 | 4.8 | 0.00 | 0.00 | 0.00 | 73 | 1014.6 |
| 20260503032441 | 2 | 224 | 0.0 | 6.4 | 0.00 | 0.00 | 0.00 | 72 | 1014.6 |
| 20260503032241 | 2 | 136 | 0.0 | 8.0 | 0.00 | 0.00 | 0.00 | 72 | 1014.6 |
| 20260503032041 | 2 | 184 | 0.0 | 8.0 | 0.00 | 0.00 | 0.00 | 72 | 1014.7 |
| 20260503031840 | 2 | 210 | 0.0 | 8.0 | 0.00 | 0.00 | 0.00 | 72 | 1014.6 |
| 20260503031640 | 3 | 180 | 1.6 | 8.0 | 0.00 | 0.00 | 0.00 | 72 | 1014.7 |
| 20260503031440 | 3 | 164 | 3.2 | 8.0 | 0.00 | 0.00 | 0.00 | 72 | 1014.7 |
| 20260503031240 | 3 | 163 | 1.6 | 6.4 | 0.00 | 0.00 | 0.00 | 72 | 1014.6 |
| 20260503031039 | 3 | 194 | 1.6 | 6.4 | 0.00 | 0.00 | 0.00 | 72 | 1014.6 |
| 20260503030839 | 3 | 228 | 3.2 | 6.4 | 0.00 | 0.00 | 0.00 | 72 | 1014.7 |
| 20260503030639 | 3 | 201 | 1.6 | 6.4 | 0.00 | 0.00 | 0.00 | 72 | 1014.7 |
| 20260503030438 | 3 | 233 | 1.6 | 6.4 | 0.00 | 0.00 | 0.00 | 72 | 1014.7 |
| 20260503030238 | 3 | 227 | 1.6 | 9.7 | 0.00 | 0.00 | 0.00 | 72 | 1014.7 |
| 20260503030038 | 3 | 206 | 1.6 | 9.7 | 0.00 | 0.00 | 0.00 | 72 | 1014.7 |
| 20260503025837 | 3 | 178 | 1.6 | 9.7 | 0.00 | 0.00 | 0.00 | 72 | 1014.7 |
| 20260503025637 | 3 | 181 | 1.6 | 9.7 | 0.00 | 0.00 | 0.00 | 72 | 1014.7 |
| 20260503025437 | 3 | 169 | 1.6 | 9.7 | 0.00 | 0.00 | 0.00 | 72 | 1014.8 |
| 20260503025237 | 3 | 269 | 0.0 | 9.7 | 0.00 | 0.00 | 0.00 | 72 | 1014.8 |
| 20260503025036 | 3 | 249 | 1.6 | 9.7 | 0.00 | 0.00 | 0.00 | 72 | 1014.7 |
| 20260503024836 | 3 | 214 | 1.6 | 9.7 | 0.00 | 0.00 | 0.00 | 72 | 1014.8 |
| 20260503024636 | 2 | 234 | 1.6 | 9.7 | 0.00 | 0.00 | 0.00 | 72 | 1014.7 |
| 20260503024435 | 2 | 232 | 0.0 | 4.8 | 0.00 | 0.00 | 0.00 | 72 | 1014.8 |
| 20260503024235 | 3 | 232 | 0.0 | 6.4 | 0.00 | 0.00 | 0.00 | 72 | 1014.8 |
| 20260503024035 | 3 | 232 | 0.0 | 6.4 | 0.00 | 0.00 | 0.00 | 72 | 1014.9 |
| 20260503023834 | 3 | 216 | 1.6 | 6.4 | 0.00 | 0.00 | 0.00 | 72 | 1014.9 |
| 20260503023634 | 3 | 140 | 1.6 | 6.4 | 0.00 | 0.00 | 0.00 | 72 | 1014.9 |
| 20260503023434 | 3 | 169 | 1.6 | 6.4 | 0.00 | 0.00 | 0.00 | 71 | 1014.9 |
| 20260503023234 | 3 | 233 | 0.0 | 6.4 | 0.00 | 0.00 | 0.00 | 71 | 1014.9 |
| 20260503023033 | 3 | 214 | 1.6 | 6.4 | 0.00 | 0.00 | 0.00 | 71 | 1014.9 |
| 20260503022833 | 3 | 146 | 0.0 | 8.0 | 0.00 | 0.00 | 0.00 | 71 | 1014.9 |
| 20260503022633 | 3 | 166 | 1.6 | 8.0 | 0.00 | 0.00 | 0.00 | 71 | 1015.0 |
| 20260503022432 | 3 | 217 | 1.6 | 8.0 | 0.00 | 0.00 | 0.00 | 71 | 1014.9 |
| 20260503022232 | 3 | 216 | 1.6 | 8.0 | 0.00 | 0.00 | 0.00 | 71 | 1015.0 |
| 20260503022032 | 3 | 226 | 1.6 | 8.0 | 0.00 | 0.00 | 0.00 | 71 | 1015.0 |
| 20260503021831 | 3 | 232 | 1.6 | 4.8 | 0.00 | 0.00 | 0.00 | 71 | 1015.0 |
| 20260503021631 | 3 | 232 | 1.6 | 4.8 | 0.00 | 0.00 | 0.00 | 71 | 1015.0 |
| 20260503021431 | 3 | 243 | 1.6 | 4.8 | 0.00 | 0.00 | 0.00 | 72 | 1015.0 |
| 20260503021231 | 3 | 254 | 0.0 | 3.2 | 0.00 | 0.00 | 0.00 | 71 | 1014.9 |
| 20260503021030 | 3 | 254 | 0.0 | 3.2 | 0.00 | 0.00 | 0.00 | 71 | 1014.9 |
| 20260503020830 | 3 | 254 | 0.0 | 3.2 | 0.00 | 0.00 | 0.00 | 71 | 1014.9 |
| 20260503020630 | 3 | 254 | 0.0 | 4.8 | 0.00 | 0.00 | 0.00 | 71 | 1014.9 |
| 20260503020429 | 3 | 254 | 0.0 | 4.8 | 0.00 | 0.00 | 0.00 | 71 | 1014.9 |
| 20260503020229 | 3 | 254 | 0.0 | 4.8 | 0.00 | 0.00 | 0.00 | 71 | 1014.9 |
| 20260503020029 | 3 | 254 | 0.0 | 4.8 | 0.00 | 0.00 | 0.00 | 71 | 1014.9 |
| 20260503015829 | 3 | 220 | 0.0 | 4.8 | 0.00 | 0.00 | 0.00 | 71 | 1014.9 |
| 20260503015628 | 3 | 236 | 0.0 | 4.8 | 0.00 | 0.00 | 0.00 | 71 | 1014.9 |
| 20260503015428 | 3 | 236 | 0.0 | 3.2 | 0.00 | 0.00 | 0.00 | 71 | 1014.9 |
| 20260503015227 | 3 | 236 | 0.0 | 3.2 | 0.00 | 0.00 | 0.00 | 70 | 1014.9 |
| 20260503015027 | 3 | 236 | 0.0 | 3.2 | 0.00 | 0.00 | 0.00 | 70 | 1014.8 |
| 20260503014827 | 3 | 236 | 0.0 | 3.2 | 0.00 | 0.00 | 0.00 | 70 | 1014.8 |
| 20260503014627 | 3 | 236 | 0.0 | 3.2 | 0.00 | 0.00 | 0.00 | 70 | 1014.8 |
| 20260503014426 | 3 | 0 | 0.0 | 3.2 | 0.00 | 0.00 | 0.00 | 69 | 1014.8 |
| 20260503014226 | 3 | 0 | 0.0 | 3.2 | 0.00 | 0.00 | 0.00 | 69 | 1014.8 |
| 20260503014026 | 3 | 236 | 0.0 | 3.2 | 0.00 | 0.00 | 0.00 | 69 | 1014.7 |
| 20260503013825 | 3 | 236 | 0.0 | 4.8 | 0.00 | 0.00 | 0.00 | 68 | 1014.8 |
| 20260503013625 | 3 | 236 | 0.0 | 4.8 | 0.00 | 0.00 | 0.00 | 68 | 1014.8 |
| 20260503013425 | 4 | 236 | 0.0 | 4.8 | 0.00 | 0.00 | 0.00 | 68 | 1014.7 |
| 20260503013224 | 4 | 236 | 1.6 | 4.8 | 0.00 | 0.00 | 0.00 | 68 | 1014.8 |
| 20260503013024 | 4 | 236 | 1.6 | 3.2 | 0.00 | 0.00 | 0.00 | 68 | 1014.7 |
| 20260503012824 | 4 | 236 | 0.0 | 3.2 | 0.00 | 0.00 | 0.00 | 68 | 1014.8 |
| 20260503012624 | 4 | 236 | 0.0 | 3.2 | 0.00 | 0.00 | 0.00 | 68 | 1014.8 |
| 20260503012423 | 4 | 236 | 0.0 | 3.2 | 0.00 | 0.00 | 0.00 | 68 | 1014.8 |
| 20260503012223 | 4 | 236 | 0.0 | 3.2 | 0.00 | 0.00 | 0.00 | 68 | 1014.8 |
| 20260503012023 | 4 | 236 | 0.0 | 3.2 | 0.00 | 0.00 | 0.00 | 67 | 1014.8 |
| 20260503011822 | 4 | 236 | 0.0 | 3.2 | 0.00 | 0.00 | 0.00 | 67 | 1014.8 |
| 20260503011622 | 4 | 236 | 0.0 | 3.2 | 0.00 | 0.00 | 0.00 | 67 | 1014.8 |
| 20260503011422 | 4 | 236 | 0.0 | 4.8 | 0.00 | 0.00 | 0.00 | 67 | 1014.8 |
| 20260503011221 | 4 | 236 | 0.0 | 6.4 | 0.00 | 0.00 | 0.00 | 67 | 1014.8 |
| 20260503011021 | 4 | 236 | 0.0 | 6.4 | 0.00 | 0.00 | 0.00 | 67 | 1014.8 |
| 20260503010821 | 4 | 236 | 0.0 | 6.4 | 0.00 | 0.00 | 0.00 | 67 | 1014.9 |
| 20260503010621 | 4 | 224 | 1.6 | 6.4 | 0.00 | 0.00 | 0.00 | 67 | 1014.8 |
| 20260503010420 | 4 | 136 | 1.6 | 6.4 | 0.00 | 0.00 | 0.00 | 67 | 1014.9 |
| 20260503010220 | 5 | 127 | 0.0 | 6.4 | 0.00 | 0.00 | 0.00 | 66 | 1014.8 |
| 20260503010020 | 5 | 197 | 0.0 | 6.4 | 0.00 | 0.00 | 0.00 | 66 | 1014.9 |
| 20260503005819 | 5 | 239 | 0.0 | 6.4 | 0.00 | 0.00 | 0.00 | 66 | 1014.8 |
| 20260503005619 | 5 | 232 | 1.6 | 6.4 | 0.00 | 0.00 | 0.00 | 66 | 1014.8 |
| 20260503005419 | 5 | 258 | 1.6 | 6.4 | 0.00 | 0.00 | 0.00 | 66 | 1014.8 |
| 20260503005218 | 5 | 245 | 1.6 | 6.4 | 0.00 | 0.00 | 0.00 | 66 | 1014.8 |
| 20260503005018 | 5 | 206 | 0.0 | 4.8 | 0.00 | 0.00 | 0.00 | 66 | 1014.8 |
| 20260503004818 | 5 | 177 | 1.6 | 4.8 | 0.00 | 0.00 | 0.00 | 66 | 1014.7 |
| 20260503004618 | 5 | 202 | 1.6 | 3.2 | 0.00 | 0.00 | 0.00 | 66 | 1014.8 |
| 20260503004417 | 5 | 202 | 0.0 | 3.2 | 0.00 | 0.00 | 0.00 | 66 | 1014.8 |
| 20260503004217 | 5 | 202 | 0.0 | 3.2 | 0.00 | 0.00 | 0.00 | 66 | 1014.8 |
| 20260503004017 | 5 | 202 | 0.0 | 1.6 | 0.00 | 0.00 | 0.00 | 66 | 1014.8 |
| 20260503003816 | 5 | 202 | 0.0 | 1.6 | 0.00 | 0.00 | 0.00 | 65 | 1014.7 |
| 20260503003616 | 5 | 202 | 0.0 | 1.6 | 0.00 | 0.00 | 0.00 | 65 | 1014.7 |
| 20260503003416 | 5 | 202 | 0.0 | 1.6 | 0.00 | 0.00 | 0.00 | 65 | 1014.7 |
| 20260503003215 | 5 | 202 | 0.0 | 3.2 | 0.00 | 0.00 | 0.00 | 65 | 1014.7 |
| 20260503003015 | 5 | 202 | 0.0 | 4.8 | 0.00 | 0.00 | 0.00 | 65 | 1014.7 |
| 20260503002815 | 5 | 202 | 0.0 | 4.8 | 0.00 | 0.00 | 0.00 | 64 | 1014.6 |
| 20260503002615 | 5 | 202 | 0.0 | 4.8 | 0.00 | 0.00 | 0.00 | 64 | 1014.6 |
| 20260503002414 | 5 | 206 | 1.6 | 4.8 | 0.00 | 0.00 | 0.00 | 64 | 1014.7 |
| 20260503002214 | 5 | 220 | 0.0 | 4.8 | 0.00 | 0.00 | 0.00 | 64 | 1014.6 |
| 20260503002014 | 5 | 239 | 0.0 | 4.8 | 0.00 | 0.00 | 0.00 | 64 | 1014.5 |
| 20260503001813 | 5 | 239 | 0.0 | 4.8 | 0.00 | 0.00 | 0.00 | 64 | 1014.6 |
| 20260503001613 | 5 | 246 | 1.6 | 4.8 | 0.00 | 0.00 | 0.00 | 64 | 1014.6 |
| 20260503001413 | 5 | 248 | 1.6 | 4.8 | 0.00 | 0.00 | 0.00 | 63 | 1014.6 |
| 20260503001212 | 5 | 191 | 0.0 | 3.2 | 0.00 | 0.00 | 0.00 | 63 | 1014.6 |
| 20260503001012 | 5 | 178 | 1.6 | 3.2 | 0.00 | 0.00 | 0.00 | 63 | 1014.6 |
| 20260503000812 | 5 | 112 | 0.0 | 3.2 | 0.00 | 0.00 | 0.00 | 63 | 1014.6 |
| 20260503000611 | 5 | 199 | 1.6 | 3.2 | 0.00 | 0.00 | 0.00 | 63 | 1014.7 |
| 20260503000411 | 5 | 254 | 0.0 | 3.2 | 0.00 | 0.00 | 0.00 | 62 | 1014.6 |
| 20260503000211 | 5 | 217 | 0.0 | 3.2 | 0.00 | 0.00 | 0.00 | 63 | 1014.7 |
| 20260503000011 | 5 | 217 | 0.0 | 3.2 | 0.00 | 0.00 | 0.00 | 63 | 1014.7 |
| 20260502235810 | 6 | 217 | 0.0 | 3.2 | 0.00 | 0.00 | 0.00 | 63 | 1014.7 |
| 20260502235610 | 6 | 217 | 0.0 | 4.8 | 0.00 | 0.00 | 0.00 | 62 | 1014.7 |
| 20260502235410 | 6 | 217 | 0.0 | 4.8 | 0.00 | 0.00 | 0.00 | 62 | 1014.7 |
| 20260502235209 | 6 | 217 | 0.0 | 6.4 | 0.00 | 0.00 | 0.00 | 62 | 1014.6 |
| 20260502235009 | 6 | 217 | 0.0 | 6.4 | 0.00 | 0.00 | 0.00 | 62 | 1014.6 |
| 20260502234809 | 6 | 180 | 1.6 | 6.4 | 0.00 | 0.00 | 0.00 | 62 | 1014.6 |
| 20260502234609 | 6 | 179 | 1.6 | 6.4 | 0.00 | 0.00 | 0.00 | 62 | 1014.6 |
| 20260502234408 | 6 | 177 | 1.6 | 6.4 | 0.00 | 0.00 | 0.00 | 62 | 1014.7 |
| 20260502234208 | 6 | 129 | 0.0 | 6.4 | 0.00 | 0.00 | 0.00 | 62 | 1014.6 |
| 20260502234008 | 6 | 129 | 0.0 | 4.8 | 0.00 | 0.00 | 0.00 | 62 | 1014.7 |
| 20260502233807 | 6 | 129 | 0.0 | 4.8 | 0.00 | 0.00 | 0.00 | 61 | 1014.7 |
| 20260502233607 | 6 | 46 | 1.6 | 4.8 | 0.00 | 0.00 | 0.00 | 61 | 1014.7 |
| 20260502233407 | 6 | 28 | 1.6 | 4.8 | 0.00 | 0.00 | 0.00 | 61 | 1014.6 |
| 20260502233206 | 6 | 255 | 1.6 | 4.8 | 0.00 | 0.00 | 0.00 | 61 | 1014.7 |
| 20260502233006 | 6 | 237 | 1.6 | 4.8 | 0.00 | 0.00 | 0.00 | 61 | 1014.7 |
| 20260502232806 | 6 | 240 | 1.6 | 6.4 | 0.00 | 0.00 | 0.00 | 61 | 1014.7 |
| 20260502232605 | 6 | 273 | 1.6 | 6.4 | 0.00 | 0.00 | 0.00 | 61 | 1014.7 |
| 20260502232405 | 6 | 12 | 1.6 | 6.4 | 0.00 | 0.00 | 0.00 | 61 | 1014.7 |
| 20260502232205 | 6 | 68 | 1.6 | 6.4 | 0.00 | 0.00 | 0.00 | 61 | 1014.7 |
| 20260502232005 | 6 | 114 | 1.6 | 6.4 | 0.00 | 0.00 | 0.00 | 61 | 1014.7 |
| 20260502231804 | 6 | 151 | 0.0 | 6.4 | 0.00 | 0.00 | 0.00 | 61 | 1014.8 |
| 20260502231604 | 6 | 135 | 0.0 | 8.0 | 0.00 | 0.00 | 0.00 | 61 | 1014.8 |
| 20260502231404 | 6 | 135 | 0.0 | 8.0 | 0.00 | 0.00 | 0.00 | 61 | 1014.8 |
| 20260502231203 | 6 | 70 | 1.6 | 8.0 | 0.00 | 0.00 | 0.00 | 60 | 1014.7 |
| 20260502231003 | 6 | 57 | 3.2 | 8.0 | 0.00 | 0.00 | 0.00 | 60 | 1014.7 |
| 20260502230803 | 6 | 1 | 1.6 | 8.0 | 0.00 | 0.00 | 0.00 | 60 | 1014.7 |
| 20260502230603 | 6 | 327 | 3.2 | 8.0 | 0.00 | 0.00 | 0.00 | 60 | 1014.7 |
| 20260502230402 | 6 | 27 | 3.2 | 9.7 | 0.00 | 0.00 | 0.00 | 60 | 1014.7 |
| 20260502230202 | 6 | 158 | 1.6 | 11.3 | 0.00 | 0.00 | 0.00 | 60 | 1014.7 |
| 20260502230002 | 6 | 288 | 1.6 | 14.5 | 0.00 | 0.00 | 0.00 | 60 | 1014.7 |
| 20260502225801 | 6 | 26 | 3.2 | 14.5 | 0.00 | 0.00 | 0.00 | 60 | 1014.8 |
| 20260502225601 | 6 | 23 | 4.8 | 14.5 | 0.00 | 0.00 | 0.00 | 60 | 1014.7 |
| 20260502225401 | 6 | 35 | 3.2 | 14.5 | 0.00 | 0.00 | 0.00 | 60 | 1014.8 |
| 20260502225200 | 6 | 44 | 3.2 | 12.9 | 0.00 | 0.00 | 0.00 | 60 | 1014.7 |
| 20260502225000 | 6 | 75 | 4.8 | 12.9 | 0.00 | 0.00 | 0.00 | 60 | 1014.8 |
| 20260502224800 | 6 | 76 | 3.2 | 12.9 | 0.00 | 0.00 | 0.00 | 60 | 1014.8 |